SCP
0 0 0 0 0 0 0 0 0 0 0 0 0 0 0 0 0 0 0 0 0 0 0 0 0 0 0 0 0 0 0 0 0 0 0 0 0 0 0 0 0 0 0
0 0 0 0 0 0 0 0 0 0 0 0 0 0 0 0 0 0 0 0 0 0 0 0 0 0 0 0 0 0 0 0 0 0 0 0 0 0 0 0 0 0 0
0 0 0 0 0 0 0 0 0 0 0 0 0 0 0 0 0 0 0 0 0 0 0 0 0 0 0 0 0 0 0 0 0 0 0 0 0 0 0 0 0 0 0
0 0 0 0 0 0 0 0 0 0 0 0 0 0 0 0 0 0 0 0 0 0 0 0 0 0 0 0 0 0 0 0 0 0 0 0 0 0 0 0 0 0 0
0 0 0 0 0 0 0 0 0 0 0 0 0 0 0 0 0 0 0 0 0 0 0 0 0 0 0 0 0 0 0 0 0 0 0 0 0 0 0 0 0 0 0
0 0 0 0 0 0 0 0 0 0 0 0 0 0 0 0 0 0 0 0 0 0 0 0 0 0 0 0 0 0 0 0 0 0 0 0 0 0 0 0 0 0 0
0 0 0 0 0 0 0 0 0 0 0 0 0 0 0 0 0 0 0 0 0 0 0 0 0 0 0 0 0 0 0 0 0 0 0 0 0 0 0 0 0 0 0
0 0 0 0 0 0 0 0 0 0 0 0 0 0 0 0 0 0 0 0 0 0 0 0 0 0 0 0 0 0 0 0 0 0 0 0 0 0 0 0 0 0 0
0 0 0 0 0 0 0 0 0 0 0 0 0 0 0 0 0 0 0 0 0 0 0 0 0 0 0 0 0 0 0 0 0 0 0 0 0 0 0 0 0 0 0
0 0 0 0 0 0 0 0 0 0 0 0 0 0 0 0 0 0 0 0 0 0 0 0 0 0 0 0 0 0 0 0 0 0 0 0 0 0 0 0 0 0 0
0 0 0 0 0 0 0 0 0 0 0 0 0 0 0 0 0 0 0 0 0 0 0 0 0 0 0 0 0 0 0 0 0 0 0 0 0 0 0 0 0 0 0
0 0 0 0 0 0 0 0 0 0 0 0 0 0 0 0 0 0 0 0 0 0 0 0 0 0 0 0 0 0 0 0 0 0 0 0 0 0 0 0 0 0 0
0 0 0 0 0 0 0 0 0 0 0 0 0 0 0 0 0 0 0 0 0 0 0 0 0 0 0 0 0 0 0 0 0 0 0 0 0 0 0 0 0 0 0
0 0 0 0 0 0 0 0 0 0 0 0 0 0 0 0 0 0 0 0 0 0 0 0 0 0 0 0 0 0 0 0 0 0 0 0 0 0 0 0 0 0 0
0 0 0 0 0 0 0 0 0 0 0 0 0 0 0 0 0 0 0 0 0 0 0 0 0 0 0 0 0 0 0 0 0 0 0 0 0 0 0 0 0 0 0
0 0 0 0 0 0 0 0 0 0 0 0 0 0 0 0 0 0 0 0 0 0 0 0 0 0 0 0 0 0 0 0 0 0 0 0 0 0 0 0 0 0 0
0 0 0 0 0 0 0 0 0 0 0 0 0 0 0 0 0 0 0 0 0 0 0 0 0 0 0 0 0 0 0 0 0 0 0 0 0 0 0 0 0 0 0
0 0 0 0 0 0 0 0 0 0 0 0 0 0 0 0 0 0 0 0 0 0 0 0 0 0 0 0 0 0 0 0 0 0 0 0 0 0 0 0 0 0 0
0 0 0 0 0 0 0 0 0 0 0 0 0 0 0 0 0 0 0 0 0 0 0 0 0 0 0 0 0 0 0 0 0 0 0 0 0 0 0 0 0 0 0
0 0 0 0 0 0 0 0 0 0 0 0 0 0 0 0 0 0 0 0 0 0 0 0 0 0 0 0 0 0 0 0 0 0 0 0 0 0 0 0 0 0 0
0 0 0 0 0 0 0 0 0 0 0 0 0 0 0 0 0 0 0 0 0 0 0 0 0 0 0 0 0 0 0 0 0 0 0 0 0 0 0 0 0 0 0
0 0 0 0 0 0 0 0 0 0 0 0 0 0 0 0 0 0 0 0 0 0 0 0 0 0 0 0 0 0 0 0 0 0 0 0 0 0 0 0 0 0 0
0 0 0 0 0 0 0 0 0 0 0 0 0 0 0 0 0 0 0 0 0 0 0 0 0 0 0 0 0 0 0 0 0 0 0 0 0 0 0 0 0 0 0
0 0 0 0 0 0 0 0 0 0 0 0 0 0 0 0 0 0 0 0 0 0 0 0 0 0 0 0 0 0 0 0 0 0 0 0 0 0 0 0 0 0 0
0 0 0 0 0 0 0 0 0 0 0 0 0 0 0 0 0 0 0 0 0 0 0 0 0 0 0 0 0 0 0 0 0 0 0 0 0 0 0 0 0 0 0
0 0 0 0 0 0 0 0 0 0 0 0 0 0 0 0 0 0 0 0 0 0 0 0 0 0 0 0 0 0 0 0 0 0 0 0 0 0 0 0 0 0 0
Wind_Speed
3 2 2 3 3 2 2 2 1 1 1 1 1 1 1 1 2 2 2 4 3 1 1 2 2 3 2 2 3 3 3 4 4 4 4 5 6 6 6 6 7 7 8
3 2 2 2 2 2 2 1 1 1 0 0 1 1 1 1 1 3 3 3 2 1 1 1 2 3 3 3 3 3 3 3 3 4 4 5 6 6 6 7 7 7 8
3 2 2 2 2 2 2 1 1 1 1 1 0 0 1 0 0 1 2 2 2 2 1 1 2 3 3 3 3 2 2 3 3 4 4 5 6 6 7 7 7 8 8
2 2 2 2 2 2 2 1 1 1 1 0 1 1 1 1 1 0 1 1 2 2 2 2 2 3 3 3 3 2 2 2 3 4 4 5 6 6 7 7 7 8 8
2 2 2 2 2 2 2 1 1 1 1 0 0 0 1 1 1 1 0 1 1 2 2 2 2 2 3 3 3 2 2 2 3 4 5 5 6 6 7 7 8 8 8
1 2 2 2 2 2 1 1 2 1 1 1 0 1 1 1 1 1 1 1 1 1 1 1 2 2 2 2 2 3 3 3 4 4 5 6 6 7 7 7 8 8 9
1 2 2 2 2 2 3 3 2 2 1 1 1 1 2 2 2 2 1 1 1 1 1 1 1 1 1 2 2 3 4 4 5 5 5 6 7 7 8 8 9 9 9
1 2 2 2 2 2 2 2 2 2 1 1 1 0 1 2 2 2 2 2 1 1 1 1 1 1 1 1 1 3 4 5 5 6 6 6 7 8 8 9 9 9 10
1 1 2 2 2 2 2 3 2 3 2 2 2 2 1 2 2 2 2 1 1 1 1 1 1 1 1 1 1 1 3 5 6 6 7 7 8 8 9 9 9 10 10
1 1 1 2 2 2 2 3 3 2 3 2 1 1 1 1 1 2 2 2 2 2 1 1 1 1 1 0 0 1 2 4 6 7 7 7 8 9 9 10 10 10 11
1 1 1 1 2 2 2 2 2 2 2 2 2 1 1 1 1 1 2 2 2 2 2 2 1 1 1 1 1 1 3 4 5 6 7 8 8 9 10 10 10 11 11
1 1 1 1 2 2 2 2 3 3 2 2 2 2 1 1 1 1 2 2 2 3 3 2 1 1 0 0 0 2 4 5 5 6 7 8 8 9 10 10 10 11 12
1 2 1 1 2 2 3 2 2 2 2 3 2 2 1 1 1 1 1 2 2 2 2 2 1 1 1 0 1 3 4 5 5 6 7 7 8 9 9 10 11 11 12
2 2 2 2 2 2 2 2 2 2 2 2 2 2 1 1 1 1 1 1 2 2 2 2 1 1 1 1 1 3 3 5 6 6 7 7 8 8 9 9 10 11 11
1 2 2 2 2 2 2 2 2 2 2 2 2 2 2 2 1 1 1 1 2 3 3 2 1 1 1 1 2 2 2 5 7 7 7 7 8 8 9 9 10 10 11
1 2 2 2 2 2 2 2 2 2 2 2 2 2 2 2 1 1 1 1 1 2 3 2 2 2 2 2 4 2 3 6 7 7 8 8 8 9 9 9 9 10 10
2 2 2 2 2 2 2 2 2 2 3 2 2 2 2 1 1 1 1 1 2 2 4 4 2 2 2 3 3 3 3 3 3 7 8 8 8 8 8 9 9 10 10
1 1 2 2 2 2 2 3 3 3 3 3 3 2 3 2 2 1 1 2 2 2 3 5 4 3 3 3 3 3 3 3 3 6 8 8 7 7 8 9 9 9 9
1 1 2 2 2 2 2 3 3 3 3 3 3 3 2 2 2 2 2 2 2 2 2 3 4 3 3 2 3 4 3 3 4 5 6 6 7 8 8 8 9 8 9
2 2 2 2 2 2 3 2 2 2 2 2 2 2 3 3 3 2 2 2 2 2 2 2 3 3 3 3 2 3 4 3 3 4 4 5 6 7 8 9 8 8 8
1 2 2 1 1 2 2 2 2 2 2 2 2 2 2 2 2 2 2 2 2 2 2 3 3 3 3 3 3 2 4 4 4 2 2 3 3 3 4 6 7 7 8
1 1 1 1 1 1 2 2 1 1 2 2 2 1 1 1 2 3 3 4 3 3 3 3 4 4 5 4 3 3 3 4 4 2 3 4 2 3 3 2 6 8 9
1 1 1 1 1 1 1 1 1 1 1 1 1 1 1 1 1 1 2 4 4 5 5 4 4 5 4 4 3 3 3 4 4 3 3 4 2 3 3 4 8 8 9
1 1 1 1 1 1 0 1 1 1 1 1 0 1 1 1 1 2 1 2 3 3 4 3 3 4 3 3 3 4 4 4 3 2 1 3 3 3 4 3 6 7 8
1 1 1 1 1 0 0 1 1 1 1 0 0 0 1 1 2 2 1 2 3 3 4 5 6 5 6 6 5 2 2 3 4 3 1 1 2 4 4 3 3 6 9
1 1 1 1 1 1 1 0 1 1 1 0 0 0 1 2 3 3 1 1 2 3 2 3 4 5 4 4 5 2 2 3 3 3 1 1 2 3 4 2 2 3 5
Wind_Direction
147 153 155 163 169 154 168 187 176 160 161 148 132 127 129 122 127 125 123 118 105 85 71 47 25 17 11 4 4 3 6 3 360 0 358 354 352 351 350 351 351 346 343
141 145 142 150 148 148 173 168 151 123 127 88 99 115 113 102 137 134 139 135 128 126 80 9 358 349 346 343 348 0 6 2 359 355 351 350 348 346 343 342 341 340 338
140 141 134 144 149 145 138 113 110 97 82 53 10 23 62 37 56 118 142 155 161 171 193 272 318 325 325 327 330 346 2 1 352 350 348 346 341 336 334 336 336 333 332
136 137 132 151 147 130 124 120 119 115 112 83 11 1 6 353 345 117 136 159 171 173 196 222 279 301 305 310 314 325 345 348 344 340 337 337 334 329 329 329 328 327 325
129 136 146 150 135 128 138 148 138 133 138 160 283 342 336 334 319 319 216 199 195 180 177 201 231 271 291 291 302 308 313 321 327 329 330 330 328 326 323 323 321 320 319
136 130 142 153 141 135 143 142 141 132 144 158 39 340 306 281 292 282 262 231 221 197 187 195 207 244 262 272 286 293 299 307 316 320 322 322 321 321 320 318 316 314 314
148 148 151 147 143 160 173 166 152 150 147 126 67 327 297 263 249 253 261 250 235 216 206 220 221 210 220 251 273 284 293 305 308 310 315 315 313 315 316 314 312 311 310
169 162 156 157 157 161 162 158 145 152 171 164 146 158 302 303 279 257 250 249 246 232 224 242 243 237 211 189 252 286 294 299 305 308 310 310 311 312 315 316 315 313 311
146 146 158 158 160 160 171 174 165 161 181 217 184 170 184 236 291 277 254 253 282 272 257 261 250 245 234 179 186 280 302 308 307 306 307 308 310 310 312 314 314 313 312
118 138 154 166 168 173 179 183 176 170 161 197 236 227 213 190 182 285 298 305 298 284 274 284 264 257 233 149 99 331 314 313 310 310 310 309 309 312 314 316 314 313 311
149 150 171 176 174 167 180 183 178 174 168 177 194 209 256 298 230 211 269 292 306 293 284 276 266 256 222 147 127 338 329 314 308 309 312 310 310 311 311 313 313 313 312
181 185 190 193 188 175 182 196 182 179 187 183 189 185 176 202 226 221 248 263 274 279 281 277 276 267 230 76 32 347 321 310 308 311 316 317 315 312 312 312 313 315 314
203 206 200 205 208 194 187 188 185 187 183 182 192 204 198 214 217 223 244 271 279 279 278 284 286 301 345 45 345 331 314 305 304 311 315 316 317 316 316 316 315 314 315
217 200 201 204 218 208 190 181 186 192 180 189 200 207 211 230 235 222 216 230 279 281 276 276 302 320 345 349 316 320 303 302 303 308 310 312 314 314 315 316 316 316 315
209 196 206 203 209 207 190 173 179 192 190 202 207 211 214 229 232 230 217 196 213 264 277 263 280 301 317 319 305 292 285 296 301 302 306 309 312 313 314 316 318 320 320
195 186 198 204 196 194 190 172 180 197 203 207 203 208 222 230 228 216 206 228 226 235 266 272 273 290 309 317 310 303 288 299 294 297 303 307 310 313 316 318 319 321 321
189 190 204 206 197 193 187 182 195 200 207 212 211 207 224 229 230 235 224 238 254 241 263 287 292 299 311 305 306 295 290 283 287 296 301 304 306 312 317 319 320 320 321
191 192 204 210 209 208 197 188 201 208 209 219 223 217 229 236 240 244 239 246 251 240 242 275 288 294 293 287 293 296 302 304 296 297 300 300 305 313 317 318 318 321 324
195 201 207 210 209 214 211 201 207 210 210 219 221 222 233 221 242 250 254 256 261 267 253 259 283 297 302 306 310 307 308 304 304 301 300 304 307 311 314 319 321 324 326
195 201 217 217 213 211 209 202 212 217 213 220 226 222 232 230 234 244 255 258 277 285 279 269 277 291 297 305 310 309 312 308 302 306 305 308 308 311 314 318 321 325 326
199 191 204 216 226 219 210 197 207 220 213 212 223 227 234 251 264 266 271 270 263 260 272 272 273 286 288 307 294 294 300 309 303 291 309 302 301 294 301 311 320 324 330
192 167 191 169 218 240 222 211 199 191 206 209 225 251 252 231 261 278 286 295 283 261 260 265 273 277 278 287 292 295 304 316 306 305 320 300 289 293 300 298 316 327 332
143 133 143 117 129 135 195 208 229 190 181 206 217 225 268 273 293 274 297 313 304 295 287 271 266 270 276 278 282 286 282 281 279 289 310 292 291 296 301 309 320 325 332
124 125 111 118 109 101 113 207 142 121 140 162 209 213 225 243 269 296 310 312 300 303 303 299 277 283 295 293 268 265 272 290 288 278 273 283 299 302 307 300 303 321 337
72 87 99 99 104 116 104 82 74 120 130 177 263 283 282 266 278 309 326 310 313 318 336 331 327 324 323 320 316 312 292 290 303 301 291 278 306 320 306 287 303 332 336
80 70 75 98 130 146 212 161 65 123 133 144 21 307 292 294 294 314 310 284 300 310 329 338 334 331 328 325 326 304 268 275 300 295 292 344 320 336 317 299 315 326 327